| time (UTC) | temp C | wind direction | speed KPH | gust KPH | rain 1hr cm | rain 24hr cm | rain mn cm | humidity % | barometer mb |
| 20260502162007 | 20 | 15 | 12.9 | 20.9 | 0.00 | 0.00 | 0.00 | 13 | 1017.5 |
| 20260502161513 | 20 | 360 | 9.7 | 19.3 | 0.00 | 0.00 | 0.00 | 13 | 1017.5 |
| 20260502161009 | 20 | 342 | 9.7 | 17.7 | 0.00 | 0.00 | 0.00 | 11 | 1017.5 |
| 20260502160513 | 20 | 340 | 11.3 | 17.7 | 0.00 | 0.00 | 0.00 | 12 | 1017.5 |
| 20260502152007 | 20 | 316 | 3.2 | 8.0 | 0.00 | 0.00 | 0.00 | 14 | 1017.6 |
| 20260502151549 | 19 | 340 | 4.8 | 12.9 | 0.00 | 0.00 | 0.00 | 15 | 1017.6 |
| 20260502151007 | 19 | 328 | 4.8 | 12.9 | 0.00 | 0.00 | 0.00 | 13 | 1017.7 |
| 20260502150506 | 19 | 246 | 1.6 | 12.9 | 0.00 | 0.00 | 0.00 | 13 | 1017.7 |
| 20260502130505 | 12 | 238 | 1.6 | 6.4 | 0.00 | 0.00 | 0.00 | 24 | 1017.5 |
| 20260502123502 | 10 | 245 | 1.6 | 4.8 | 0.00 | 0.00 | 0.00 | 25 | 1017.5 |
| 20260502123010 | 10 | 245 | 3.2 | 8.0 | 0.00 | 0.00 | 0.00 | 24 | 1017.5 |
| 20260502122506 | 10 | 244 | 1.6 | 8.0 | 0.00 | 0.00 | 0.00 | 24 | 1017.4 |
| 20260502122003 | 10 | 244 | 1.6 | 4.8 | 0.00 | 0.00 | 0.00 | 25 | 1017.4 |
| 20260502121508 | 10 | 245 | 1.6 | 4.8 | 0.00 | 0.00 | 0.00 | 24 | 1017.3 |
| 20260502121007 | 10 | 245 | 1.6 | 4.8 | 0.00 | 0.00 | 0.00 | 23 | 1017.3 |
| 20260502120508 | 10 | 249 | 1.6 | 4.8 | 0.00 | 0.00 | 0.00 | 24 | 1017.3 |
| 20260502115503 | 10 | 252 | 1.6 | 6.4 | 0.00 | 0.00 | 0.00 | 23 | 1017.4 |
| 20260502115006 | 10 | 257 | 1.6 | 4.8 | 0.00 | 0.00 | 0.00 | 24 | 1017.4 |
| 20260502114504 | 10 | 258 | 1.6 | 4.8 | 0.00 | 0.00 | 0.00 | 23 | 1017.4 |
| 20260502114003 | 10 | 252 | 1.6 | 4.8 | 0.00 | 0.00 | 0.00 | 24 | 1017.3 |
| 20260502113506 | 10 | 252 | 1.6 | 4.8 | 0.00 | 0.00 | 0.00 | 25 | 1017.3 |
| 20260502113029 | 10 | 252 | 1.6 | 4.8 | 0.00 | 0.00 | 0.00 | 25 | 1017.2 |
| 20260502112503 | 9 | 252 | 1.6 | 3.2 | 0.00 | 0.00 | 0.00 | 25 | 1017.3 |
| 20260502112006 | 9 | 252 | 0.0 | 3.2 | 0.00 | 0.00 | 0.00 | 25 | 1017.3 |
| 20260502111516 | 9 | 252 | 0.0 | 1.6 | 0.00 | 0.00 | 0.00 | 26 | 1017.3 |
| 20260502111011 | 9 | 252 | 0.0 | 3.2 | 0.00 | 0.00 | 0.00 | 26 | 1017.4 |
| 20260502110503 | 9 | 252 | 0.0 | 3.2 | 0.00 | 0.00 | 0.00 | 26 | 1017.4 |
| 20260502110013 | 9 | 252 | 0.0 | 6.4 | 0.00 | 0.00 | 0.00 | 26 | 1017.5 |
| 20260502105507 | 9 | 252 | 0.0 | 6.4 | 0.00 | 0.00 | 0.00 | 26 | 1017.5 |
| 20260502105004 | 9 | 242 | 0.0 | 6.4 | 0.00 | 0.00 | 0.00 | 27 | 1017.5 |
| 20260502104507 | 9 | 242 | 0.0 | 4.8 | 0.00 | 0.00 | 0.00 | 27 | 1017.4 |
| 20260502104010 | 9 | 242 | 1.6 | 4.8 | 0.00 | 0.00 | 0.00 | 27 | 1017.4 |
| 20260502103507 | 9 | 242 | 0.0 | 3.2 | 0.00 | 0.00 | 0.00 | 27 | 1017.5 |
| 20260502103005 | 9 | 242 | 0.0 | 6.4 | 0.00 | 0.00 | 0.00 | 28 | 1017.6 |
| 20260502102503 | 9 | 242 | 1.6 | 6.4 | 0.00 | 0.00 | 0.00 | 26 | 1017.6 |
| 20260502102007 | 9 | 238 | 0.0 | 6.4 | 0.00 | 0.00 | 0.00 | 28 | 1017.6 |
| 20260502101505 | 9 | 239 | 0.0 | 8.0 | 0.00 | 0.00 | 0.00 | 27 | 1017.6 |
| 20260502101004 | 8 | 237 | 3.2 | 8.0 | 0.00 | 0.00 | 0.00 | 28 | 1017.7 |
| 20260502100507 | 8 | 236 | 4.8 | 8.0 | 0.00 | 0.00 | 0.00 | 29 | 1017.7 |
| 20260502091512 | 7 | 177 | 0.0 | 4.8 | 0.00 | 0.00 | 0.00 | 33 | 1017.8 |
| 20260502091010 | 6 | 177 | 0.0 | 4.8 | 0.00 | 0.00 | 0.00 | 32 | 1017.9 |
| 20260502090515 | 6 | 176 | 0.0 | 3.2 | 0.00 | 0.00 | 0.00 | 31 | 1017.9 |
| 20260502071508 | 7 | 213 | 1.6 | 3.2 | 0.00 | 0.00 | 0.00 | 35 | 1019.1 |
| 20260502071009 | 7 | 213 | 0.0 | 3.2 | 0.00 | 0.00 | 0.00 | 35 | 1019.1 |
| 20260502070509 | 7 | 213 | 0.0 | 3.2 | 0.00 | 0.00 | 0.00 | 32 | 1019.1 |
| 20260502070039 | 7 | 213 | 1.6 | 3.2 | 0.00 | 0.00 | 0.00 | 32 | 1019.2 |
| 20260502065507 | 7 | 213 | 1.6 | 4.8 | 0.00 | 0.00 | 0.00 | 34 | 1019.3 |
| 20260502065007 | 7 | 213 | 0.0 | 4.8 | 0.00 | 0.00 | 0.00 | 35 | 1019.2 |
| 20260502064523 | 7 | 204 | 0.0 | 4.8 | 0.00 | 0.00 | 0.00 | 35 | 1019.3 |
| 20260502064011 | 7 | 204 | 1.6 | 4.8 | 0.00 | 0.00 | 0.00 | 36 | 1019.3 |
| 20260502063506 | 7 | 204 | 1.6 | 3.2 | 0.00 | 0.00 | 0.00 | 35 | 1019.3 |
| 20260502063033 | 7 | 204 | 0.0 | 4.8 | 0.00 | 0.00 | 0.00 | 35 | 1019.3 |
| 20260502062507 | 7 | 204 | 0.0 | 4.8 | 0.00 | 0.00 | 0.00 | 36 | 1019.3 |
| 20260502062006 | 7 | 204 | 1.6 | 4.8 | 0.00 | 0.00 | 0.00 | 36 | 1019.3 |
| 20260502061517 | 7 | 203 | 1.6 | 3.2 | 0.00 | 0.00 | 0.00 | 36 | 1019.3 |
| 20260502061010 | 7 | 203 | 0.0 | 3.2 | 0.00 | 0.00 | 0.00 | 36 | 1019.3 |
| 20260502060506 | 7 | 204 | 0.0 | 1.6 | 0.00 | 0.00 | 0.00 | 36 | 1019.3 |
| 20260502060014 | 7 | 204 | 0.0 | 4.8 | 0.00 | 0.00 | 0.00 | 37 | 1019.3 |
| 20260502055509 | 7 | 204 | 0.0 | 4.8 | 0.00 | 0.00 | 0.00 | 37 | 1019.4 |
| 20260502055006 | 7 | 322 | 0.0 | 1.6 | 0.00 | 0.00 | 0.00 | 38 | 1019.5 |
| 20260502054526 | 7 | 322 | 0.0 | 0.0 | 0.00 | 0.00 | 0.00 | 37 | 1019.5 |
| 20260502054007 | 7 | 322 | 0.0 | 0.0 | 0.00 | 0.00 | 0.00 | 37 | 1019.5 |
| 20260502053506 | 7 | 322 | 0.0 | 1.6 | 0.00 | 0.00 | 0.00 | 38 | 1019.5 |
| 20260502053005 | 7 | 322 | 0.0 | 1.6 | 0.00 | 0.00 | 0.00 | 38 | 1019.5 |
| 20260502052508 | 7 | 322 | 0.0 | 3.2 | 0.00 | 0.00 | 0.00 | 38 | 1019.5 |
| 20260502052009 | 8 | 322 | 0.0 | 3.2 | 0.00 | 0.00 | 0.00 | 37 | 1019.6 |
| 20260502051505 | 8 | 322 | 0.0 | 3.2 | 0.00 | 0.00 | 0.00 | 38 | 1019.5 |
| 20260502051008 | 8 | 322 | 1.6 | 3.2 | 0.00 | 0.00 | 0.00 | 38 | 1019.5 |
| 20260502050510 | 8 | 322 | 1.6 | 3.2 | 0.00 | 0.00 | 0.00 | 36 | 1019.6 |
| 20260502050035 | 8 | 323 | 1.6 | 3.2 | 0.00 | 0.00 | 0.00 | 36 | 1019.6 |
| 20260502045504 | 8 | 323 | 0.0 | 1.6 | 0.00 | 0.00 | 0.00 | 35 | 1019.6 |
| 20260502045007 | 9 | 323 | 0.0 | 0.0 | 0.00 | 0.00 | 0.00 | 35 | 1019.6 |
| 20260502044518 | 9 | 323 | 0.0 | 0.0 | 0.00 | 0.00 | 0.00 | 34 | 1019.7 |
| 20260502044003 | 9 | 323 | 0.0 | 3.2 | 0.00 | 0.00 | 0.00 | 35 | 1019.8 |
| 20260502043506 | 9 | 323 | 0.0 | 3.2 | 0.00 | 0.00 | 0.00 | 35 | 1019.8 |
| 20260502043021 | 9 | 323 | 0.0 | 3.2 | 0.00 | 0.00 | 0.00 | 33 | 1019.8 |
| 20260502042511 | 9 | 323 | 0.0 | 1.6 | 0.00 | 0.00 | 0.00 | 34 | 1019.8 |
| 20260502042003 | 9 | 323 | 0.0 | 3.2 | 0.00 | 0.00 | 0.00 | 34 | 1019.9 |
| 20260502041522 | 9 | 323 | 0.0 | 4.8 | 0.00 | 0.00 | 0.00 | 35 | 1019.9 |
| 20260502041007 | 9 | 323 | 0.0 | 4.8 | 0.00 | 0.00 | 0.00 | 34 | 1019.9 |
| 20260502040507 | 9 | 323 | 1.6 | 4.8 | 0.00 | 0.00 | 0.00 | 33 | 1019.8 |
| 20260502040011 | 10 | 323 | 0.0 | 3.2 | 0.00 | 0.00 | 0.00 | 33 | 1019.8 |
| 20260502035505 | 10 | 323 | 0.0 | 4.8 | 0.00 | 0.00 | 0.00 | 33 | 1019.9 |
| 20260502035008 | 10 | 323 | 0.0 | 4.8 | 0.00 | 0.00 | 0.00 | 30 | 1019.9 |
| 20260502034512 | 11 | 323 | 1.6 | 4.8 | 0.00 | 0.00 | 0.00 | 30 | 1019.8 |
| 20260502034008 | 10 | 323 | 1.6 | 4.8 | 0.00 | 0.00 | 0.00 | 30 | 1019.8 |
| 20260502033507 | 10 | 324 | 1.6 | 4.8 | 0.00 | 0.00 | 0.00 | 32 | 1019.8 |
| 20260502033029 | 10 | 324 | 1.6 | 4.8 | 0.00 | 0.00 | 0.00 | 33 | 1019.9 |
| 20260502032505 | 10 | 325 | 1.6 | 4.8 | 0.00 | 0.00 | 0.00 | 33 | 1019.9 |
| 20260502032008 | 10 | 327 | 0.0 | 4.8 | 0.00 | 0.00 | 0.00 | 34 | 1019.8 |
| 20260502031522 | 10 | 327 | 1.6 | 4.8 | 0.00 | 0.00 | 0.00 | 34 | 1019.9 |
| 20260502031006 | 10 | 327 | 1.6 | 4.8 | 0.00 | 0.00 | 0.00 | 32 | 1019.8 |
| 20260502030509 | 11 | 343 | 1.6 | 4.8 | 0.00 | 0.00 | 0.00 | 31 | 1019.7 |
| 20260502030020 | 11 | 343 | 1.6 | 4.8 | 0.00 | 0.00 | 0.00 | 29 | 1019.6 |
| 20260502025506 | 11 | 344 | 1.6 | 4.8 | 0.00 | 0.00 | 0.00 | 31 | 1019.6 |
| 20260502025006 | 11 | 345 | 0.0 | 3.2 | 0.00 | 0.00 | 0.00 | 30 | 1019.5 |
| 20260502024529 | 12 | 348 | 1.6 | 3.2 | 0.00 | 0.00 | 0.00 | 28 | 1019.3 |
| 20260502024009 | 12 | 348 | 0.0 | 3.2 | 0.00 | 0.00 | 0.00 | 25 | 1019.3 |
| 20260502023510 | 12 | 348 | 0.0 | 3.2 | 0.00 | 0.00 | 0.00 | 26 | 1019.3 |
| 20260502023013 | 12 | 348 | 1.6 | 3.2 | 0.00 | 0.00 | 0.00 | 25 | 1019.3 |
| 20260502022508 | 13 | 348 | 0.0 | 1.6 | 0.00 | 0.00 | 0.00 | 23 | 1019.3 |
| 20260502022011 | 13 | 348 | 0.0 | 1.6 | 0.00 | 0.00 | 0.00 | 23 | 1019.2 |
| 20260502021507 | 13 | 348 | 0.0 | 1.6 | 0.00 | 0.00 | 0.00 | 23 | 1019.2 |
| 20260502021007 | 13 | 348 | 0.0 | 1.6 | 0.00 | 0.00 | 0.00 | 24 | 1019.1 |
| 20260502020508 | 13 | 348 | 0.0 | 1.6 | 0.00 | 0.00 | 0.00 | 24 | 1019.2 |
| 20260502020024 | 13 | 348 | 0.0 | 1.6 | 0.00 | 0.00 | 0.00 | 25 | 1019.2 |
| 20260502015507 | 14 | 348 | 0.0 | 1.6 | 0.00 | 0.00 | 0.00 | 24 | 1019.3 |
| 20260502015008 | 14 | 348 | 0.0 | 3.2 | 0.00 | 0.00 | 0.00 | 25 | 1019.2 |
| 20260502014525 | 14 | 348 | 0.0 | 4.8 | 0.00 | 0.00 | 0.00 | 25 | 1019.3 |
| 20260502014010 | 15 | 348 | 1.6 | 4.8 | 0.00 | 0.00 | 0.00 | 24 | 1019.2 |
| 20260502013506 | 15 | 349 | 1.6 | 4.8 | 0.00 | 0.00 | 0.00 | 25 | 1019.1 |
| 20260502013020 | 15 | 351 | 3.2 | 4.8 | 0.00 | 0.00 | 0.00 | 25 | 1019.1 |
| 20260502012506 | 15 | 352 | 3.2 | 6.4 | 0.00 | 0.00 | 0.00 | 25 | 1019.1 |
| 20260502012008 | 15 | 348 | 3.2 | 6.4 | 0.00 | 0.00 | 0.00 | 24 | 1019.1 |
| 20260502011520 | 15 | 352 | 3.2 | 9.7 | 0.00 | 0.00 | 0.00 | 22 | 1019.1 |
| 20260502011009 | 15 | 360 | 3.2 | 9.7 | 0.00 | 0.00 | 0.00 | 24 | 1019.1 |
| 20260502010508 | 15 | 352 | 3.2 | 8.0 | 0.00 | 0.00 | 0.00 | 24 | 1019.1 |
| 20260502010018 | 15 | 352 | 3.2 | 11.3 | 0.00 | 0.00 | 0.00 | 23 | 1019.2 |
| 20260502005507 | 15 | 5 | 3.2 | 11.3 | 0.00 | 0.00 | 0.00 | 23 | 1019.2 |
| 20260502005010 | 16 | 5 | 4.8 | 12.9 | 0.00 | 0.00 | 0.00 | 23 | 1019.1 |
| 20260502004514 | 16 | 5 | 4.8 | 12.9 | 0.00 | 0.00 | 0.00 | 21 | 1019.1 |
| 20260502004006 | 16 | 344 | 6.4 | 11.3 | 0.00 | 0.00 | 0.00 | 19 | 1019.1 |
| 20260502003508 | 16 | 360 | 4.8 | 12.9 | 0.00 | 0.00 | 0.00 | 19 | 1019.0 |
| 20260502003026 | 16 | 17 | 4.8 | 12.9 | 0.00 | 0.00 | 0.00 | 19 | 1019.1 |
| 20260502002511 | 16 | 352 | 6.4 | 12.9 | 0.00 | 0.00 | 0.00 | 18 | 1019.1 |
| 20260502002016 | 17 | 346 | 6.4 | 12.9 | 0.00 | 0.00 | 0.00 | 16 | 1019.1 |
| 20260502001526 | 17 | 14 | 4.8 | 9.7 | 0.00 | 0.00 | 0.00 | 15 | 1019.1 |
| 20260502001008 | 17 | 360 | 4.8 | 14.5 | 0.00 | 0.00 | 0.00 | 20 | 1019.1 |
| 20260502000511 | 17 | 28 | 6.4 | 14.5 | 0.00 | 0.00 | 0.00 | 16 | 1019.1 |
| 20260502000039 | 17 | 342 | 6.4 | 19.3 | 0.00 | 0.00 | 0.00 | 15 | 1019.1 |
| 20260501235511 | 17 | 342 | 8.0 | 19.3 | 0.00 | 0.00 | 0.00 | 18 | 1019.2 |
| 20260501235007 | 17 | 360 | 9.7 | 19.3 | 0.00 | 0.00 | 0.00 | 15 | 1019.2 |
| 20260501234523 | 17 | 340 | 4.8 | 17.7 | 0.00 | 0.00 | 0.00 | 15 | 1019.2 |
| 20260501234007 | 17 | 360 | 9.7 | 14.5 | 0.00 | 0.00 | 0.00 | 16 | 1019.2 |
| 20260501233503 | 17 | 5 | 8.0 | 16.1 | 0.00 | 0.00 | 0.00 | 18 | 1019.1 |
| 20260501233019 | 17 | 5 | 9.7 | 19.3 | 0.00 | 0.00 | 0.00 | 18 | 1019.1 |
| 20260501232516 | 17 | 348 | 9.7 | 20.9 | 0.00 | 0.00 | 0.00 | 16 | 1019.1 |
| 20260501232012 | 17 | 339 | 12.9 | 20.9 | 0.00 | 0.00 | 0.00 | 17 | 1019.0 |
| 20260501231516 | 17 | 352 | 9.7 | 17.7 | 0.00 | 0.00 | 0.00 | 15 | 1019.0 |
| 20260501231010 | 17 | 360 | 6.4 | 16.1 | 0.00 | 0.00 | 0.00 | 20 | 1019.0 |
| 20260501230511 | 17 | 340 | 4.8 | 16.1 | 0.00 | 0.00 | 0.00 | 15 | 1019.1 |
| 20260501230026 | 17 | 324 | 6.4 | 17.7 | 0.00 | 0.00 | 0.00 | 14 | 1019.1 |
| 20260501225507 | 17 | 11 | 6.4 | 20.9 | 0.00 | 0.00 | 0.00 | 19 | 1019.1 |
| 20260501225008 | 17 | 352 | 11.3 | 20.9 | 0.00 | 0.00 | 0.00 | 17 | 1019.2 |
| 20260501224539 | 18 | 352 | 4.8 | 19.3 | 0.00 | 0.00 | 0.00 | 14 | 1019.2 |
| 20260501224005 | 18 | 12 | 9.7 | 16.1 | 0.00 | 0.00 | 0.00 | 16 | 1019.2 |
| 20260501223506 | 17 | 352 | 6.4 | 22.5 | 0.00 | 0.00 | 0.00 | 14 | 1019.2 |
| 20260501223028 | 17 | 344 | 11.3 | 22.5 | 0.00 | 0.00 | 0.00 | 16 | 1019.3 |
| 20260501222510 | 17 | 352 | 14.5 | 19.3 | 0.00 | 0.00 | 0.00 | 15 | 1019.2 |
| 20260501222009 | 18 | 263 | 4.8 | 17.7 | 0.00 | 0.00 | 0.00 | 14 | 1019.2 |
| 20260501221524 | 17 | 306 | 8.0 | 17.7 | 0.00 | 0.00 | 0.00 | 14 | 1019.3 |
| 20260501221011 | 17 | 323 | 6.4 | 19.3 | 0.00 | 0.00 | 0.00 | 15 | 1019.3 |
| 20260501220507 | 17 | 344 | 11.3 | 22.5 | 0.00 | 0.00 | 0.00 | 16 | 1019.3 |
| 20260501220030 | 17 | 344 | 11.3 | 27.4 | 0.00 | 0.00 | 0.00 | 19 | 1019.3 |
| 20260501215516 | 17 | 352 | 9.7 | 27.4 | 0.00 | 0.00 | 0.00 | 18 | 1019.3 |
| 20260501215008 | 17 | 5 | 6.4 | 20.9 | 0.00 | 0.00 | 0.00 | 15 | 1019.4 |
| 20260501214519 | 17 | 330 | 11.3 | 24.1 | 0.00 | 0.00 | 0.00 | 16 | 1019.4 |
| 20260501214010 | 17 | 5 | 14.5 | 24.1 | 0.00 | 0.00 | 0.00 | 17 | 1019.4 |
| 20260501213510 | 17 | 18 | 9.7 | 17.7 | 0.00 | 0.00 | 0.00 | 18 | 1019.4 |
| 20260501213025 | 17 | 345 | 6.4 | 16.1 | 0.00 | 0.00 | 0.00 | 16 | 1019.4 |
| 20260501212506 | 17 | 321 | 4.8 | 19.3 | 0.00 | 0.00 | 0.00 | 16 | 1019.5 |
| 20260501212007 | 17 | 5 | 9.7 | 22.5 | 0.00 | 0.00 | 0.00 | 15 | 1019.5 |
| 20260501211529 | 17 | 349 | 11.3 | 22.5 | 0.00 | 0.00 | 0.00 | 17 | 1019.6 |
| 20260501211006 | 17 | 5 | 11.3 | 24.1 | 0.00 | 0.00 | 0.00 | 14 | 1019.6 |
| 20260501210503 | 17 | 5 | 9.7 | 27.4 | 0.00 | 0.00 | 0.00 | 19 | 1019.6 |
| 20260501210006 | 17 | 13 | 19.3 | 27.4 | 0.00 | 0.00 | 0.00 | 17 | 1019.6 |
| 20260501205503 | 17 | 17 | 4.8 | 22.5 | 0.00 | 0.00 | 0.00 | 17 | 1019.6 |
| 20260501205005 | 17 | 346 | 12.9 | 22.5 | 0.00 | 0.00 | 0.00 | 18 | 1019.6 |
| 20260501204506 | 17 | 352 | 8.0 | 22.5 | 0.00 | 0.00 | 0.00 | 16 | 1019.6 |
| 20260501204003 | 17 | 13 | 12.9 | 25.7 | 0.00 | 0.00 | 0.00 | 18 | 1019.7 |
| 20260501203502 | 17 | 351 | 17.7 | 25.7 | 0.00 | 0.00 | 0.00 | 18 | 1019.7 |
| 20260501203003 | 17 | 331 | 8.0 | 16.1 | 0.00 | 0.00 | 0.00 | 16 | 1019.6 |
| 20260501202504 | 17 | 338 | 8.0 | 24.1 | 0.00 | 0.00 | 0.00 | 15 | 1019.6 |
| 20260501202003 | 17 | 360 | 9.7 | 24.1 | 0.00 | 0.00 | 0.00 | 15 | 1019.7 |
| 20260501201509 | 17 | 352 | 16.1 | 24.1 | 0.00 | 0.00 | 0.00 | 16 | 1019.7 |
| 20260501201006 | 17 | 5 | 11.3 | 25.7 | 0.00 | 0.00 | 0.00 | 17 | 1019.7 |
| 20260501200504 | 17 | 327 | 14.5 | 25.7 | 0.00 | 0.00 | 0.00 | 17 | 1019.7 |
| 20260501200013 | 17 | 272 | 6.4 | 22.5 | 0.00 | 0.00 | 0.00 | 15 | 1019.7 |
| 20260501195504 | 17 | 322 | 12.9 | 22.5 | 0.00 | 0.00 | 0.00 | 16 | 1019.7 |
| 20260501195002 | 17 | 360 | 11.3 | 25.7 | 0.00 | 0.00 | 0.00 | 18 | 1019.6 |
| 20260501194512 | 17 | 27 | 12.9 | 27.4 | 0.00 | 0.00 | 0.00 | 17 | 1019.7 |
| 20260501194004 | 17 | 5 | 16.1 | 27.4 | 0.00 | 0.00 | 0.00 | 20 | 1019.6 |
| 20260501193503 | 17 | 11 | 17.7 | 27.4 | 0.00 | 0.00 | 0.00 | 19 | 1019.6 |
| 20260501193010 | 17 | 352 | 17.7 | 27.4 | 0.00 | 0.00 | 0.00 | 15 | 1019.6 |
| 20260501192505 | 17 | 338 | 14.5 | 25.7 | 0.00 | 0.00 | 0.00 | 18 | 1019.7 |
| 20260501192003 | 17 | 327 | 8.0 | 22.5 | 0.00 | 0.00 | 0.00 | 18 | 1019.6 |
| 20260501191507 | 17 | 330 | 9.7 | 22.5 | 0.00 | 0.00 | 0.00 | 17 | 1019.7 |
| 20260501191010 | 17 | 11 | 12.9 | 22.5 | 0.00 | 0.00 | 0.00 | 19 | 1019.7 |
| 20260501190504 | 17 | 333 | 9.7 | 20.9 | 0.00 | 0.00 | 0.00 | 19 | 1019.8 |
| 20260501190007 | 17 | 338 | 9.7 | 27.4 | 0.00 | 0.00 | 0.00 | 16 | 1019.9 |
| 20260501185508 | 16 | 360 | 16.1 | 27.4 | 0.00 | 0.00 | 0.00 | 18 | 1019.8 |
| 20260501185005 | 16 | 337 | 12.9 | 27.4 | 0.00 | 0.00 | 0.00 | 17 | 1019.9 |
| 20260501184510 | 17 | 292 | 17.7 | 25.7 | 0.00 | 0.00 | 0.00 | 17 | 1019.9 |
| 20260501184005 | 16 | 330 | 8.0 | 29.0 | 0.00 | 0.00 | 0.00 | 20 | 1019.9 |
| 20260501183504 | 16 | 332 | 12.9 | 29.0 | 0.00 | 0.00 | 0.00 | 19 | 1019.8 |
| 20260501183020 | 17 | 5 | 17.7 | 29.0 | 0.00 | 0.00 | 0.00 | 17 | 1019.9 |
| 20260501182505 | 16 | 315 | 14.5 | 25.7 | 0.00 | 0.00 | 0.00 | 17 | 1020.0 |
| 20260501182008 | 17 | 323 | 11.3 | 25.7 | 0.00 | 0.00 | 0.00 | 19 | 1020.0 |
| 20260501181512 | 16 | 320 | 14.5 | 27.4 | 0.00 | 0.00 | 0.00 | 18 | 1020.0 |
| 20260501181006 | 16 | 310 | 11.3 | 27.4 | 0.00 | 0.00 | 0.00 | 18 | 1020.0 |
| 20260501180506 | 16 | 326 | 8.0 | 22.5 | 0.00 | 0.00 | 0.00 | 17 | 1019.9 |
| 20260501180012 | 16 | 298 | 9.7 | 24.1 | 0.00 | 0.00 | 0.00 | 19 | 1020.0 |
| 20260501175506 | 16 | 338 | 12.9 | 24.1 | 0.00 | 0.00 | 0.00 | 19 | 1020.0 |
| 20260501175003 | 16 | 319 | 8.0 | 27.4 | 0.00 | 0.00 | 0.00 | 19 | 1019.9 |
| 20260501174513 | 16 | 325 | 14.5 | 27.4 | 0.00 | 0.00 | 0.00 | 19 | 1019.9 |
| 20260501174006 | 16 | 17 | 17.7 | 27.4 | 0.00 | 0.00 | 0.00 | 18 | 1020.0 |
| 20260501173506 | 16 | 348 | 9.7 | 24.1 | 0.00 | 0.00 | 0.00 | 17 | 1019.9 |
| 20260501173009 | 16 | 340 | 14.5 | 24.1 | 0.00 | 0.00 | 0.00 | 18 | 1020.0 |
| 20260501172505 | 16 | 325 | 8.0 | 22.5 | 0.00 | 0.00 | 0.00 | 16 | 1019.9 |
| 20260501172007 | 16 | 295 | 11.3 | 29.0 | 0.00 | 0.00 | 0.00 | 17 | 1019.9 |
| 20260501171508 | 16 | 292 | 19.3 | 29.0 | 0.00 | 0.00 | 0.00 | 19 | 1019.9 |
| 20260501171006 | 16 | 15 | 17.7 | 25.7 | 0.00 | 0.00 | 0.00 | 23 | 1019.9 |
| 20260501170506 | 16 | 335 | 12.9 | 29.0 | 0.00 | 0.00 | 0.00 | 17 | 1019.9 |
| 20260501170015 | 16 | 330 | 9.7 | 29.0 | 0.00 | 0.00 | 0.00 | 18 | 1019.8 |
| 20260501165504 | 16 | 347 | 14.5 | 25.7 | 0.00 | 0.00 | 0.00 | 20 | 1019.9 |
| 20260501165007 | 16 | 322 | 14.5 | 25.7 | 0.00 | 0.00 | 0.00 | 18 | 1019.9 |
| 20260501164512 | 16 | 9 | 11.3 | 25.7 | 0.00 | 0.00 | 0.00 | 21 | 1019.8 |
| 20260501164005 | 16 | 5 | 12.9 | 24.1 | 0.00 | 0.00 | 0.00 | 20 | 1019.8 |
| 20260501163506 | 16 | 360 | 9.7 | 24.1 | 0.00 | 0.00 | 0.00 | 22 | 1019.7 |
| 20260501163015 | 15 | 319 | 9.7 | 24.1 | 0.00 | 0.00 | 0.00 | 21 | 1019.7 |
| 20260501162506 | 15 | 352 | 6.4 | 20.9 | 0.00 | 0.00 | 0.00 | 24 | 1019.7 |